Date String (YYYY-MM-DD hh:mm:ss) UTC,Instrument flags,absolute air pressure of the measurement (hPa),sample flow rate (lpm),inlet stack bypass flow (lpm),air temperature of the measurement (°C),ambient temperature measured by the external sensor (°C),aerosol sample conditioner tube jacket temperature (°C),OPC LED temperature (°C),internal box temperature (°C),relative humidity of the measurement (%),span deviation,mass concentration of particles derived from Lorenz-Mie calculation of OPC scattering (μg/m³),mass concentration of particles derived from Lorenz-Mie calculation of OPC scattering (μg/m³),mass concentration of particles derived from Lorenz-Mie calculation of OPC scattering (μg/m³)
DateTimeUTC,F1_M11,P_M11,Q1_M11,Q2_M11,T1_M11,T2_M11,T3_M11,T4_M11,T5_M11,U1_M11,ZSPAN_M11,X0_M11,X2_M11,X1_M11
2023-10-06 19:00:00,SystemResetWarning,0842.2,5.00,000.00,027.8,026.3,000.0,036.3,029.4,18.3,0000.0,0011.15,0004.04,0003.29
2023-10-06 19:01:00,SystemResetWarning,0842.1,4.99,000.00,027.8,026.3,000.0,036.3,029.4,18.2,0000.0,0010.75,0004.04,0003.29
2023-10-06 19:02:00,SystemResetWarning,0842.1,5.00,000.00,027.8,026.3,000.0,036.3,029.4,18.2,0000.0,0010.84,0004.04,0003.30
2023-10-06 19:03:00,SystemResetWarning,0842.1,5.00,000.00,027.8,026.4,000.0,036.3,029.5,18.2,0000.0,0010.62,0004.01,0003.30
2023-10-06 19:04:00,SystemResetWarning,0842.1,5.01,000.00,027.8,026.4,000.0,036.3,029.5,18.2,0000.0,0010.63,0004.02,0003.30
2023-10-06 19:05:00,SystemResetWarning,0842.1,5.01,000.00,027.8,026.4,000.0,036.3,029.5,18.2,0000.0,0011.95,0004.05,0003.29
2023-10-06 19:06:00,SystemResetWarning,0842.1,5.00,000.00,027.8,026.4,000.0,036.3,029.5,18.3,0000.0,0012.13,0004.06,0003.29
2023-10-06 19:07:00,SystemResetWarning,0842.1,5.01,000.00,027.9,026.5,000.0,036.3,029.6,18.3,0000.0,0012.43,0004.09,0003.29
2023-10-06 19:08:00,SystemResetWarning,0842.1,5.00,000.00,027.9,026.5,000.0,036.3,029.5,18.4,0000.0,0012.24,0004.08,0003.30
2023-10-06 19:09:00,SystemResetWarning,0842.1,4.99,000.00,027.9,026.5,000.0,036.3,029.5,18.3,0000.0,0012.76,0004.10,0003.31
2023-10-06 19:10:00,SystemResetWarning,0842.1,5.00,000.00,027.9,026.5,000.0,036.3,029.5,18.2,0000.0,0012.37,0004.11,0003.31
2023-10-06 19:11:00,SystemResetWarning,0842.0,5.00,000.00,027.9,026.5,000.0,036.3,029.5,18.2,0000.0,0012.98,0004.13,0003.30
2023-10-06 19:12:00,SystemResetWarning,0842.0,4.99,000.00,027.9,026.5,000.0,036.3,029.5,18.2,0000.0,0013.01,0004.12,0003.30
2023-10-06 19:13:00,SystemResetWarning,0842.0,5.00,000.00,027.9,026.4,000.0,036.3,029.5,18.2,0000.0,0013.58,0004.14,0003.30
2023-10-06 19:14:00,SystemResetWarning,0842.0,5.00,000.00,027.9,026.4,000.0,036.3,029.5,18.1,0000.0,0013.64,0004.14,0003.29
2023-10-06 19:15:00,SystemResetWarning,0842.0,5.00,000.00,027.9,026.4,000.0,036.3,029.5,18.2,0000.0,0014.13,0004.15,0003.28
2023-10-06 19:16:00,SystemResetWarning,0841.9,5.00,000.00,027.9,026.4,000.0,036.3,029.6,18.1,0000.0,0013.94,0004.14,0003.29
2023-10-06 19:17:00,SystemResetWarning,0841.9,5.01,000.00,027.9,026.5,000.0,036.3,029.6,18.2,0000.0,0013.30,0004.14,0003.29
2023-10-06 19:18:00,SystemResetWarning,0841.8,5.00,000.00,027.9,026.5,000.0,036.3,029.6,18.1,0000.0,0012.93,0004.11,0003.29
2023-10-06 19:19:00,SystemResetWarning,0841.8,5.00,000.00,027.9,026.5,000.0,036.3,029.6,18.2,0000.0,0013.19,0004.11,0003.29
2023-10-06 19:20:00,SystemResetWarning,0841.8,4.99,000.00,027.9,026.5,000.0,036.3,029.6,18.2,0000.0,0013.00,0004.13,0003.29
2023-10-06 19:21:00,SystemResetWarning,0841.8,5.00,000.00,027.9,026.5,000.0,036.3,029.6,18.2,0000.0,0012.85,0004.13,0003.30
2023-10-06 19:22:00,SystemResetWarning,0841.8,5.00,000.00,027.9,026.5,000.0,036.3,029.6,18.2,0000.0,0012.22,0004.13,0003.31
2023-10-06 19:23:00,SystemResetWarning,0841.8,5.00,000.00,027.9,026.5,000.0,036.3,029.6,18.1,0000.0,0012.43,0004.19,0003.32
2023-10-06 19:24:00,SystemResetWarning,0841.8,5.00,000.00,028.0,026.5,000.0,036.3,029.6,18.1,0000.0,0012.05,0004.17,0003.32
2023-10-06 19:25:00,SystemResetWarning,0841.8,5.00,000.00,028.0,026.5,000.0,036.3,029.6,18.1,0000.0,0011.59,0004.22,0003.33
2023-10-06 19:26:00,SystemResetWarning,0841.8,5.01,000.00,028.0,026.5,000.0,036.3,029.6,18.1,0000.0,0011.32,0004.22,0003.34
2023-10-06 19:27:00,SystemResetWarning,0841.8,5.00,000.00,028.0,026.5,000.0,036.3,029.6,18.0,0000.0,0010.25,0004.23,0003.36
2023-10-06 19:28:00,SystemResetWarning,0841.7,5.00,000.00,028.0,026.5,000.0,036.3,029.6,18.0,0000.0,0010.88,0004.27,0003.39
2023-10-06 19:29:00,SystemResetWarning,0841.7,5.00,000.00,028.0,026.5,000.0,036.3,029.6,18.1,0000.0,0011.55,0004.32,0003.43
2023-10-06 19:30:00,SystemResetWarning,0841.7,5.00,000.00,028.0,026.5,000.0,036.3,029.6,18.1,0000.0,0010.84,0004.35,0003.45
2023-10-06 19:31:00,SystemResetWarning,0841.7,4.99,000.00,028.0,026.5,000.0,036.3,029.6,18.0,0000.0,0010.95,0004.38,0003.47
2023-10-06 19:32:00,SystemResetWarning,0841.7,5.00,000.00,028.0,026.5,000.0,036.3,029.6,18.1,0000.0,0011.47,0004.40,0003.49
2023-10-06 19:33:00,SystemResetWarning,0841.7,5.00,000.00,027.9,026.5,000.0,036.3,029.6,18.1,0000.0,0011.61,0004.43,0003.52
2023-10-06 19:34:00,SystemResetWarning,0841.7,5.00,000.00,027.9,026.5,000.0,036.3,029.6,18.0,0000.0,0011.27,0004.39,0003.55
2023-10-06 19:35:00,SystemResetWarning,0841.7,4.99,000.00,027.9,026.5,000.0,036.3,029.6,18.1,0000.0,0011.62,0004.42,0003.59
2023-10-06 19:36:00,SystemResetWarning,0841.7,4.99,000.00,027.9,026.5,000.0,036.3,029.6,18.1,0000.0,0011.60,0004.42,0003.62
2023-10-06 19:37:00,SystemResetWarning,0841.7,4.99,000.00,028.0,026.5,000.0,036.3,029.6,18.1,0000.0,0011.50,0004.42,0003.65
2023-10-06 19:38:00,SystemResetWarning,0841.6,5.00,000.00,028.0,026.5,000.0,036.3,029.6,18.2,0000.0,0011.46,0004.41,0003.66
2023-10-06 19:39:00,SystemResetWarning,0841.6,5.01,000.00,028.0,026.5,000.0,036.4,029.6,18.3,0000.0,0010.64,0004.39,0003.67
2023-10-06 19:40:00,SystemResetWarning,0841.6,5.01,000.00,028.0,026.5,000.0,036.4,029.6,18.3,0000.0,0009.86,0004.38,0003.67
2023-10-06 19:41:00,SystemResetWarning,0841.6,5.00,000.00,028.0,026.5,000.0,036.4,029.6,18.3,0000.0,0010.02,0004.42,0003.68
2023-10-06 19:42:00,SystemResetWarning,0841.6,4.99,000.00,028.0,026.5,000.0,036.4,029.6,18.3,0000.0,0010.10,0004.45,0003.69
2023-10-06 19:43:00,SystemResetWarning,0841.6,5.00,000.00,028.0,026.5,000.0,036.4,029.6,18.2,0000.0,0009.72,0004.46,0003.70
2023-10-06 19:44:00,SystemResetWarning,0841.6,4.99,000.00,028.0,026.6,000.0,036.4,029.7,18.1,0000.0,0009.81,0004.49,0003.70
2023-10-06 19:45:00,SystemResetWarning,0841.6,5.00,000.00,028.0,026.6,000.0,036.4,029.6,18.0,0000.0,0010.39,0004.49,0003.68
2023-10-06 19:46:00,SystemResetWarning,0841.6,5.01,000.00,028.0,026.6,000.0,036.4,029.7,18.0,0000.0,0010.26,0004.52,0003.67
2023-10-06 19:47:00,SystemResetWarning,0841.6,5.00,000.00,028.0,026.6,000.0,036.4,029.7,18.1,0000.0,0010.39,0004.56,0003.68
2023-10-06 19:48:00,SystemResetWarning,0841.6,5.00,000.00,028.0,026.6,000.0,036.4,029.6,17.9,0000.0,0010.53,0004.62,0003.69
2023-10-06 19:49:00,SystemResetWarning,0841.5,5.00,000.00,028.0,026.6,000.0,036.4,029.6,17.9,0000.0,0011.16,0004.76,0003.71
2023-10-06 19:50:00,SystemResetWarning,0841.5,5.00,000.00,028.0,026.6,000.0,036.4,029.7,17.9,0000.0,0011.74,0004.83,0003.73
2023-10-06 19:51:00,SystemResetWarning,0841.5,5.00,000.00,028.0,026.6,000.0,036.4,029.7,17.9,0000.0,0011.91,0004.86,0003.75
2023-10-06 19:52:00,SystemResetWarning,0841.5,4.99,000.00,028.0,026.6,000.0,036.4,029.7,17.9,0000.0,0011.78,0004.84,0003.77
2023-10-06 19:53:00,SystemResetWarning,0841.5,5.00,000.00,028.0,026.6,000.0,036.4,029.7,18.0,0000.0,0011.78,0004.81,0003.78
2023-10-06 19:54:00,SystemResetWarning,0841.4,5.00,000.00,028.0,026.6,000.0,036.4,029.7,18.1,0000.0,0013.06,0004.80,0003.78
2023-10-06 19:55:00,SystemResetWarning,0841.4,5.00,000.00,028.0,026.6,000.0,036.4,029.7,18.0,0000.0,0013.05,0004.79,0003.79
2023-10-06 19:56:00,SystemResetWarning,0841.4,5.00,000.00,028.0,026.6,000.0,036.4,029.7,18.1,0000.0,0012.81,0004.81,0003.81
2023-10-06 19:57:00,SystemResetWarning,0841.4,4.99,000.00,028.0,026.6,000.0,036.4,029.6,18.2,0000.0,0012.68,0004.79,0003.82
2023-10-06 19:58:00,SystemResetWarning,0841.4,5.00,000.00,028.0,026.6,000.0,036.4,029.6,18.0,0000.0,0012.53,0004.76,0003.82
2023-10-06 19:59:00,SystemResetWarning,0841.4,5.00,000.00,028.0,026.5,000.0,036.4,029.6,18.1,0000.0,0012.44,0004.74,0003.83
